Airfield :
LOGIN :

Register | Disclaimer

   EN    FR    IT 

 










Legend :    VFR   Marginal VFR   IFR   Intensive IFR   Very Intensive IFR
Visi :
Ceiling :
>= 8 km
>= 3000ft
5 to 8 km
1000 to 3000 ft
1500m to 5 km
500 to 1000 ft
800 to 1500m
200 to 500 ft
< 800m
< 200 ft
Symbols :   Thunderstorms  Fog  Heavy snow  Heavy precipitations  Wind > 20 kt
SIGMETs :     Misc.  Thunderstorms  Icing  Turbulence  Mountain Waves  Volcanic Ashes







- Airport Elevation : 22 ft
- IATA code : TUN


DTTA - Tunis Carthage

CURRENT METAR :
  • 200100Z 27006KT 9999 FEW026 20/13 Q1017 NOSIG

EXPIRED METARs :
  • 192330Z 26006KT 9999 FEW026 21/14 Q1018 NOSIG
  • 192300Z 27007KT 9999 FEW026 21/13 Q1018 NOSIG

TAF TAF DTTA
Valid from the 20 at 00:00 until the 21 at 00:00 UTC


192300Z 2000/2024 27010KT 9999 FEW026
PROB40
TEMPO 2009/2017 30018KT
BECMG 2020/2022 30005KT
No reported NOTAMs for that airfield.



MET'MAP, your aeronautical weather chart ! - Copyright ORBIFLY December 2007 - Disclaimer

ORBIFLY MET'MAP TEAM :

Programming & Development : Alexandra Zaïnal
Concept & Development : Baudouin d'Aumeries
Co-Development & Prog : Marc-Olivier Méhu
Technical & hardware support : Manuel Goepfert

Contact : metmap@orbifly.com




SOURCES & CREDITS :

   NOAA